User: anonymous   Login
Location: Unspecified
(0.0000°N, 0.0000°E)
Time: 20:20:05
(UTC+00:00)
Language:

STARLINK-31140 - Orbit

View from above orbital plane
View from above orbital plane
View from above satellite
View from above satellite

Ground track
Ground track

The orbit is defined by the following mean orbital elements,

1 58767U          26145.06143360 +.00000000 +00000-0 +45808-4 0 00006
2 58767  53.1615  18.9015 0001271  81.7724 278.3421 15.30198991    03
Epoch (UTC): 25 May 2026 01:28:27
Eccentricity: 0.0001271
inclination: 53.1615°
perigee height: 474 km
apogee height: 476 km
right ascension of ascending node: 18.9015°
argument of perigee: 81.7724°
revolutions per day: 15.30198991
mean anomaly at epoch: 278.3421°

The dashed part of the orbit path shows where the satellite is in the earth's shadow,  

DLR